Location: Recife
(8.0585°S, 34.8848°W)
Time: 09:42:18
(UTC-03:00)

Courier 1B Rocket - Pass Details

Date: 17 April 2026
Orbit: 920 x 1201 km, 28.2° (Epoch: 13 May)

Event Time Altitude Azimuth Distance (km) Brightness Sun altitude
Rises 12:13:17 0° 233° (SW) 3,990 8.2 67.0°
Reaches altitude 10° 12:16:10 10° 227° (SW) 3,061 7.7 66.5°
Maximum altitude 12:23:31 49° 154° (SSE) 1,503 6.4 65.4°
Drops below altitude 10° 12:31:02 10° 81° (E) 3,127 7.6 64.1°
Sets 12:34:00 0° 76° (ENE) 4,083 8.1 63.6°
